[[{"header":{"parameterUnit":"m.s-1","parameterCategory":2,"la1":30.2991,"la2":30.254,"lo1":-89.0895,"lo2":-89.0444,"dy":0.0017,"dx":0.0017,"nx":28,"ny":28,"refTime":"2023-08-27T21:00:00:Z","depth":"0","parameterNumber":2,"parameterNumberName":"U-component_of_CURRENTS"},"data":[0,0,0,0,0,0,0,0,0,0,0,0,0,0,0,0,0,0,0,0,0,0,0,0,0,0,0,0,0,0,0,0,0,0,0,0,0,0,0,0,0,0,0,0,0,0,0,0,0,0,0,0,0,0,0,0,0,0,0.2696,0.2696,0,0.2735,0.2736,0.2736,0.2724,0.2723,0.2722,0.2722,0.27,0.27,0.27,0,0,0,0,0,0,0,0,0,0,0,0,0,0.2608,0.2609,0.2696,0.2696,0.2697,0.2735,0.2736,0.2736,0.2724,0.2723,0.2722,0.2721,0.27,0.27,0.27,0,0,0,0,0,0,0,0,0,0,0,0,0,0.2645,0.261,0.2695,0.2697,0.2697,0.2735,0.2736,0.2736,0.2724,0.2723,0.2722,0.2721,0.27,0.27,0.27,0.2721,0,0,0.2701,0.2701,0,0,0,0,0,0,0,0,0.2643,0.2648,0.2696,0.2697,0.2697,0.2725,0.2697,0.2729,0.2724,0.2712,0.2722,0.2721,0.2705,0.2704,0.2713,0.272,0.2719,0.2701,0.2701,0.2701,0.2701,0,0,0,0,0,0,0,0.264,0.2646,0.271,0.2697,0.2698,0.2695,0.2699,0.2703,0.2711,0.2713,0.2713,0.272,0.2704,0.2713,0.2712,0.2719,0.2701,0.2701,0.2701,0.2701,0.2776,0.2778,0,0,0,0,0,0,0.264,0.2644,0.2708,0.2711,0.2669,0.2697,0.2702,0.2716,0.2712,0.2712,0.2721,0.272,0.2713,0.2712,0.2711,0.2747,0.2701,0.2701,0.2701,0.2774,0.2776,0.2778,0,0,0,0,0,0,0.2638,0.2646,0.2707,0.2679,0.2687,0.27,0.2716,0.2717,0.2729,0.272,0.2717,0.2732,0.2712,0.2711,0.273,0.2745,0.2701,0.2701,0.2772,0.2775,0.2777,0.2811,0,0,0,0,0,0,0.2636,0.2645,0.2656,0.2679,0.2688,0.273,0.2717,0.2719,0.2736,0.2734,0.2728,0.2725,0.2711,0.273,0.273,0.2744,0.2701,0.2769,0.2773,0.2776,0.2807,0.2815,0.2821,0,0,0,0,0,0.2633,0.2649,0.2656,0.2664,0.2703,0.2731,0.2735,0.274,0.2737,0.2746,0.2752,0.2725,0.2753,0.2732,0.2732,0.2746,0.2767,0.2772,0.2776,0.2804,0.2813,0.2821,0,0,0,0,0,0,0.2613,0.2651,0.2658,0.2685,0.2708,0.2729,0.2742,0.2748,0.2761,0.2757,0.2748,0.2747,0.2771,0.2763,0.274,0.2783,0.2757,0.2762,0.2779,0.2787,0.2794,0.28,0.2701,0,0,0,0,0,0.2617,0.2636,0.2672,0.2689,0.2708,0.2728,0.2741,0.2744,0.276,0.2765,0.2768,0.2775,0.279,0.2791,0.2801,0.2822,0.2856,0.2834,0.2841,0.2847,0.2855,0.293,0.2944,0.2793,0.2793,0.2793,0,0,0.2612,0.2635,0.2646,0.2686,0.2706,0.2732,0.2733,0.2754,0.277,0.276,0.2787,0.2799,0.2805,0.283,0.2839,0.2821,0.2914,0.2852,0.2856,0.2862,0.2936,0.2951,0.2964,0.2796,0.2795,0.2795,0,0,0.2613,0.2639,0.2659,0.2683,0.2716,0.2732,0.2742,0.2775,0.2787,0.2812,0.2821,0.2849,0.2858,0.2877,0.2884,0.2938,0.2951,0.294,0.297,0.3043,0.3056,0.3067,0.3152,0.3171,0.2938,0.2938,0.2938,0,0.2606,0.2635,0.2667,0.2694,0.271,0.2736,0.2756,0.2782,0.2813,0.2838,0.2819,0.2884,0.2881,0.2936,0.2951,0.2951,0.3003,0.2931,0.3051,0.3063,0.3075,0.3158,0.3179,0.294,0.294,0.2939,0.2939,0,0.2623,0.2647,0.2662,0.2704,0.2727,0.2747,0.2787,0.2818,0.2831,0.2859,0.2916,0.2931,0.2973,0.2977,0.2972,0.3058,0.3075,0.3054,0.3026,0.3092,0.3176,0.3197,0.2943,0.2942,0.2941,0.2941,0,0,0.2603,0.2662,0.2666,0.2687,0.2731,0.2753,0.2795,0.2848,0.2899,0.2921,0.2992,0.3012,0.304,0.3053,0.3068,0.3119,0.3241,0.3121,0.3124,0.3198,0.343,0.3386,0.3404,0.3245,0.3249,0.3251,0.3464,0,0.2604,0.2645,0.2674,0.2709,0.2737,0.2776,0.2819,0.287,0.2919,0.3002,0.3036,0.3104,0.3065,0.3103,0.3149,0.3229,0.3295,0.3187,0.3361,0.3367,0.3313,0.3426,0.3241,0.3409,0.3484,0.3487,0.349,0,0.261,0.2637,0.2669,0.2725,0.2743,0.2768,0.2852,0.2897,0.3014,0.306,0.3134,0.3183,0.3279,0.3232,0.3387,0.3326,0.3384,0.3428,0.3437,0.3396,0.3361,0.3353,0.3444,0.3428,0.3521,0.3519,0.3516,0,0.2581,0.2632,0.2654,0.2672,0.2743,0.2771,0.2813,0.2914,0.2988,0.3122,0.3205,0.33,0.3393,0.3458,0.3538,0.3486,0.3718,0.3655,0.3674,0.3672,0.3547,0.3528,0.363,0.3773,0.3773,0.3772,0.3771,0,0.2576,0.2594,0.2645,0.2663,0.2716,0.2759,0.2844,0.2914,0.3044,0.3148,0.3243,0.3356,0.3458,0.359,0.3616,0.3727,0.3786,0.3715,0.3733,0.3556,0.3536,0.3539,0.3523,0.378,0.3778,0.3777,0.3775,0,0.2557,0.2582,0.2619,0.2682,0.2708,0.275,0.2868,0.2932,0.3061,0.3212,0.3267,0.3463,0.3628,0.3726,0.388,0.3853,0.3836,0.3956,0.3749,0.3736,0.3678,0.367,0.3566,0.3462,0.4008,0.4009,0.4009,0,0.2554,0.2567,0.2634,0.266,0.2693,0.2763,0.2812,0.2933,0.3008,0.326,0.3329,0.3567,0.3686,0.3916,0.392,0.3995,0.3893,0.3883,0.3723,0.3688,0.3693,0.3472,0.3375,0.3592,0.3589,0.3587,0.3585,0,0.2564,0.2582,0.2629,0.2668,0.2711,0.2766,0.2843,0.2905,0.305,0.3191,0.3371,0.3496,0.3715,0.3736,0.3863,0.3858,0.3681,0.3831,0.3847,0.3431,0.3145,0.3048,0.3463,0.3561,0.3564,0.3565,0.3567,0.3568,0.2585,0.2612,0.2656,0.268,0.272,0.2736,0.2751,0.2836,0.2951,0.3096,0.3284,0.34,0.355,0.3683,0.3679,0.3608,0.3542,0.3508,0.3527,0.3326,0.3126,0.3502,0.3574,0.3577,0.3579,0.358,0.3582,0,0.2599,0.2622,0.2654,0.2675,0.2663,0.2697,0.274,0.272,0.278,0.295,0.3078,0.321,0.3277,0.3376,0.3408,0.3332,0.3079,0.3285,0.295,0.2891,0.3302,0.3186,0.3112,0.3112,0.3112,0.3112,0.3112,0.3112,0.2625,0.2638,0.2625,0.2592,0.259,0.2536,0.2524,0.2509,0.2573,0.2649,0.2718,0.283,0.3092,0.3286,0.3278,0.3194,0.2977,0.2785,0.2843,0.3193,0.3213,0.3233,0.3123,0.3037,0.3037,0.2213,0.2208,0.2204]},{"header":{"parameterUnit":"m.s-1","parameterCategory":2,"la1":30.2991,"la2":30.254,"lo1":-89.0895,"lo2":-89.0444,"dy":0.0017,"dx":0.0017,"nx":28,"ny":28,"refTime":"2023-08-27T21:00:00:Z","depth":"0","parameterNumber":3,"parameterNumberName":"V-component_of_CURRENTS"},"data":[0,0,0,0,0,0,0,0,0,0,0,0,0,0,0,0,0,0,0,0,0,0,0,0,0,0,0,0,0,0,0,0,0,0,0,0,0,0,0,0,0,0,0,0,0,0,0,0,0,0,0,0,0,0,0,0,0,0,0.0199,0.0198,0,0.0153,0.0152,0.0151,0.0108,0.0108,0.0108,0.0107,0.0019,0.0017,0.0015,0,0,0,0,0,0,0,0,0,0,0,0,0,0.0211,0.0211,0.0199,0.0198,0.0198,0.0153,0.0152,0.0151,0.0108,0.0108,0.0107,0.0107,0.002,0.0017,0.0015,0,0,0,0,0,0,0,0,0,0,0,0,0,0.0187,0.0211,0.0199,0.0173,0.017,0.0153,0.0152,0.0151,0.0108,0.0108,0.0107,0.0107,0.002,0.0017,0.0014,0.0005,0,0,0.0005,0.0003,0,0,0,0,0,0,0,0,0.0189,0.0186,0.0177,0.0175,0.0172,0.0138,0.0124,0.0101,0.0108,0.0129,0.0107,0.0107,0.0057,0.005,0.004,0.0,-0.0003,0.0005,0.0003,0.0001,0.0,0,0,0,0,0,0,0,0.019,0.0188,0.0178,0.0177,0.0174,0.015,0.0147,0.0119,0.0094,0.0128,0.0125,0.0124,0.0054,0.0043,0.0038,-0.0005,0.0005,0.0002,-0.0,-0.0001,-0.0055,-0.0055,0,0,0,0,0,0,0.0203,0.019,0.018,0.0177,0.0182,0.0151,0.0147,0.0147,0.0095,0.0087,0.0124,0.0122,0.0049,0.0041,0.0034,0.0038,0.0001,-0.0002,-0.0003,-0.0056,-0.0055,-0.0055,0,0,0,0,0,0,0.0204,0.0203,0.0181,0.0184,0.018,0.0152,0.0152,0.0147,0.0139,0.0093,0.0084,0.0123,0.0048,0.0039,0.0016,0.0033,-0.0003,-0.0006,-0.0056,-0.0056,-0.0055,0.0033,0,0,0,0,0,0,0.0204,0.0203,0.0208,0.0185,0.018,0.0181,0.0153,0.0146,0.014,0.0136,0.0089,0.008,0.0047,0.0021,0.0013,0.0028,-0.0008,-0.0057,-0.0056,-0.0055,0.003,0.0036,0.0042,0,0,0,0,0,0.0205,0.022,0.0209,0.0207,0.0188,0.0182,0.0177,0.0153,0.014,0.0143,0.011,0.0082,0.002,0.0019,0.0009,0.0024,-0.0057,-0.0056,-0.0055,0.0027,0.0035,0.0042,0,0,0,0,0,0,0.023,0.0217,0.0204,0.0214,0.0202,0.0176,0.0177,0.0161,0.0137,0.0133,0.0086,0.0075,0.006,0.0029,0.0029,0.001,-0.0023,-0.0024,0.0042,0.005,0.0056,0.0081,-0.0011,0,0,0,0,0,0.0238,0.0245,0.0226,0.0235,0.023,0.0204,0.0199,0.0185,0.0162,0.0151,0.0118,0.0083,0.0057,0.0044,0.0012,0.0004,-0.0015,0.0006,0.0013,0.0019,0.0031,0.0023,0.0031,-0.0052,-0.0052,-0.0052,0,0,0.025,0.0245,0.0248,0.0241,0.0227,0.0232,0.0199,0.0199,0.0204,0.0145,0.0139,0.0103,0.0058,0.0048,0.0039,0.0025,0.0032,0.002,0.0026,0.0035,0.0025,0.0033,0.0041,-0.0051,-0.0051,-0.0051,0,0,0.0285,0.0273,0.029,0.0285,0.0276,0.0258,0.0262,0.024,0.023,0.0219,0.018,0.0158,0.0114,0.0093,0.0074,0.0097,0.0064,0.0084,0.0141,0.0134,0.0141,0.0147,0.0136,0.014,0.0091,0.0091,0.0092,0,0.0297,0.0318,0.0295,0.0311,0.0314,0.0275,0.0294,0.028,0.0254,0.0257,0.0227,0.0181,0.0137,0.0139,0.0142,0.0114,0.0103,0.0119,0.0145,0.015,0.0155,0.0142,0.0146,0.0096,0.0095,0.0095,0.0094,0,0.0342,0.036,0.0371,0.0376,0.0374,0.0386,0.0364,0.0363,0.0341,0.0327,0.032,0.0265,0.0245,0.0222,0.0185,0.0203,0.0182,0.0153,0.0131,0.0169,0.0152,0.0155,0.0102,0.01,0.0099,0.0098,0,0,0.0372,0.0397,0.0403,0.0425,0.0412,0.0421,0.0429,0.0433,0.0463,0.0417,0.0453,0.0386,0.0365,0.0342,0.0299,0.0283,0.0296,0.0239,0.0237,0.0241,0.0284,0.0273,0.0274,0.0278,0.0278,0.0279,0.0259,0,0.0415,0.0468,0.0462,0.051,0.0535,0.0511,0.0531,0.053,0.052,0.0545,0.049,0.0499,0.0409,0.0417,0.0384,0.0326,0.0307,0.0304,0.0236,0.0234,0.023,0.0278,0.0251,0.0232,0.0261,0.0262,0.0262,0,0.0462,0.0495,0.055,0.0598,0.0607,0.063,0.0668,0.0681,0.0693,0.0693,0.0682,0.0645,0.0619,0.0542,0.0456,0.0462,0.0382,0.0322,0.032,0.0283,0.0228,0.0197,0.0235,0.0121,0.0265,0.0265,0.0265,0,0.0507,0.056,0.061,0.0623,0.0661,0.0694,0.0716,0.0735,0.0782,0.0802,0.0849,0.0786,0.08,0.0679,0.0541,0.0509,0.0449,0.0389,0.03,0.0298,0.0248,0.0241,0.0179,0.0332,0.0332,0.0332,0.0332,0,0.0561,0.0608,0.0646,0.0679,0.0765,0.0762,0.0856,0.0872,0.0928,0.1015,0.0942,0.101,0.084,0.0779,0.0609,0.0476,0.05,0.0328,0.0301,0.0277,0.0273,0.0148,0.0055,0.0331,0.0332,0.0332,0.0332,0,0.0617,0.0631,0.0707,0.0765,0.0794,0.086,0.0964,0.1034,0.1073,0.1192,0.1213,0.1204,0.1131,0.0939,0.0772,0.0603,0.0358,0.0385,0.0368,0.034,0.0142,0.0055,-0.0058,-0.0141,0.029,0.029,0.029,0,0.0653,0.0692,0.0781,0.0836,0.0874,0.0971,0.1044,0.1105,0.1196,0.1319,0.1395,0.138,0.1388,0.1134,0.0823,0.0541,0.0379,0.0337,0.0263,0.015,0.0032,-0.0031,-0.0098,0.0225,0.0224,0.0224,0.0223,0,0.0731,0.0757,0.0828,0.0933,0.1021,0.1131,0.1249,0.1345,0.1435,0.1551,0.169,0.1711,0.1484,0.1221,0.084,0.0616,0.0231,0.0318,0.0204,-0.0012,-0.0088,-0.0186,0.0217,0.0218,0.0219,0.0219,0.0219,0.022,0.0798,0.0868,0.0947,0.1046,0.1148,0.1282,0.1398,0.1525,0.1696,0.1877,0.1898,0.1948,0.1573,0.1062,0.0748,0.0215,0.0205,0.0053,-0.0039,-0.0087,-0.0179,0.0221,0.0192,0.0192,0.0192,0.0193,0.0193,0,0.0884,0.095,0.1046,0.1179,0.1294,0.1335,0.1526,0.1638,0.1843,0.2001,0.2125,0.1971,0.1492,0.0983,0.027,-0.0081,-0.0239,-0.0255,-0.0362,-0.0413,-0.0049,-0.0062,-0.015,-0.015,-0.015,-0.015,-0.015,-0.0149,0.0938,0.1039,0.1077,0.1265,0.1368,0.1547,0.1663,0.1816,0.1951,0.2139,0.2185,0.2204,0.1926,0.0676,-0.0162,-0.0394,-0.0632,-0.0683,-0.0779,-0.054,-0.0518,-0.0497,-0.0528,-0.0712,-0.0713,-0.1114,-0.1118,-0.1121]}],[{"header":{"parameterUnit":"m.s-1","parameterCategory":2,"la1":30.2991,"la2":30.254,"lo1":-89.0895,"lo2":-89.0444,"dy":0.0017,"dx":0.0017,"nx":28,"ny":28,"refTime":"2023-08-27T21:00:00:Z","depth":"2","parameterNumber":2,"parameterNumberName":"U-component_of_CURRENTS"},"data":[0,0,0,0,0,0,0,0,0,0,0,0,0,0,0,0,0,0,0,0,0,0,0,0,0,0,0,0,0,0,0,0,0,0,0,0,0,0,0,0,0,0,0,0,0,0,0,0,0,0,0,0,0,0,0,0,0,0,0.2659,0.2659,0,0.2694,0.2694,0.2695,0.2687,0.2686,0.2686,0.2685,0.2668,0.2668,0.2668,0,0,0,0,0,0,0,0,0,0,0,0,0,0.2573,0.2575,0.2659,0.2659,0.266,0.2694,0.2694,0.2695,0.2687,0.2686,0.2685,0.2685,0.2667,0.2668,0.2668,0,0,0,0,0,0,0,0,0,0,0,0,0,0.2608,0.2575,0.2659,0.2661,0.2662,0.2694,0.2694,0.2695,0.2687,0.2686,0.2685,0.2684,0.2667,0.2668,0.2668,0.2684,0,0,0.2668,0.2668,0,0,0,0,0,0,0,0,0.2607,0.2611,0.266,0.2661,0.2662,0.2686,0.2658,0.2689,0.2687,0.2676,0.2685,0.2684,0.267,0.267,0.2677,0.2683,0.2683,0.2668,0.2668,0.2668,0.2668,0,0,0,0,0,0,0,0.2604,0.261,0.2671,0.2661,0.2662,0.2657,0.2661,0.2664,0.2675,0.2677,0.2677,0.2683,0.267,0.2677,0.2677,0.2682,0.2668,0.2668,0.2668,0.2668,0.2741,0.2743,0,0,0,0,0,0,0.2604,0.2608,0.267,0.2673,0.2633,0.2659,0.2664,0.2678,0.2676,0.2676,0.2684,0.2683,0.2678,0.2677,0.2676,0.2715,0.2668,0.2668,0.2668,0.2739,0.2742,0.2744,0,0,0,0,0,0,0.2603,0.261,0.2669,0.2641,0.2649,0.2662,0.2678,0.2679,0.2693,0.2682,0.2681,0.2696,0.2677,0.2676,0.2694,0.2713,0.2668,0.2668,0.2737,0.274,0.2743,0.2779,0,0,0,0,0,0,0.26,0.2609,0.2621,0.2642,0.265,0.2693,0.2679,0.2681,0.2698,0.2697,0.2693,0.269,0.2676,0.2695,0.2694,0.2712,0.2668,0.2735,0.2738,0.2742,0.2775,0.2783,0.2789,0,0,0,0,0,0.2597,0.2616,0.2622,0.2629,0.2666,0.2694,0.2698,0.2702,0.27,0.2711,0.2714,0.269,0.2717,0.2696,0.2696,0.2714,0.2733,0.2737,0.2741,0.2772,0.2781,0.2789,0,0,0,0,0,0,0.2584,0.2618,0.2624,0.2653,0.2674,0.2693,0.2704,0.2712,0.2725,0.2719,0.2711,0.271,0.2735,0.2727,0.2704,0.275,0.2723,0.2727,0.2747,0.2755,0.2762,0.2766,0.2668,0,0,0,0,0,0.2589,0.2606,0.264,0.2658,0.2674,0.2692,0.2705,0.2709,0.2723,0.2728,0.2733,0.274,0.2754,0.2755,0.2765,0.2786,0.2815,0.2801,0.2808,0.2813,0.2819,0.289,0.2904,0.2758,0.2758,0.2758,0,0,0.2584,0.2606,0.2615,0.2656,0.2672,0.2695,0.2698,0.2717,0.2734,0.2723,0.2752,0.2763,0.2767,0.2793,0.2803,0.2786,0.2877,0.2819,0.2823,0.2826,0.2896,0.291,0.2923,0.2761,0.276,0.276,0,0,0.2585,0.2611,0.2629,0.2651,0.2681,0.2696,0.2706,0.2738,0.2752,0.2778,0.2785,0.2813,0.2824,0.2842,0.2847,0.2901,0.2913,0.2906,0.2936,0.3005,0.3018,0.3029,0.3105,0.3123,0.2905,0.2905,0.2905,0,0.2579,0.2608,0.2637,0.2661,0.2676,0.27,0.2719,0.2744,0.2777,0.2802,0.2786,0.285,0.2846,0.2898,0.2914,0.2914,0.2963,0.2898,0.3014,0.3025,0.3036,0.3111,0.313,0.2908,0.2907,0.2907,0.2907,0,0.2594,0.2619,0.2631,0.2669,0.2691,0.2709,0.2747,0.278,0.2796,0.2823,0.2881,0.2895,0.2937,0.2942,0.2936,0.302,0.3035,0.3016,0.2988,0.3053,0.3129,0.3148,0.2911,0.291,0.2909,0.2909,0,0,0.2576,0.2631,0.2634,0.2653,0.2693,0.2715,0.2755,0.2809,0.2858,0.2884,0.2955,0.2973,0.3003,0.3015,0.3031,0.3079,0.3194,0.3082,0.3084,0.3151,0.3371,0.3228,0.3235,0.3202,0.3205,0.3207,0.34,0,0.2577,0.2616,0.2643,0.2676,0.27,0.2737,0.278,0.283,0.2879,0.2962,0.2995,0.3063,0.3026,0.3066,0.311,0.3181,0.3244,0.3145,0.3305,0.331,0.3168,0.3251,0.2999,0.3135,0.3419,0.3422,0.3424,0,0.2583,0.2609,0.264,0.2692,0.2709,0.2734,0.2815,0.286,0.2973,0.302,0.3093,0.3141,0.3231,0.3189,0.333,0.3275,0.3331,0.337,0.3378,0.3241,0.3201,0.3114,0.3159,0.3456,0.3453,0.3451,0.3449,0,0.2557,0.2606,0.2628,0.2643,0.2709,0.2737,0.278,0.2878,0.2951,0.3082,0.3165,0.3252,0.3346,0.3401,0.3467,0.3425,0.3627,0.3577,0.3506,0.3499,0.3309,0.3277,0.369,0.369,0.369,0.3689,0.3689,0,0.2553,0.257,0.262,0.2635,0.2688,0.2729,0.2813,0.2882,0.301,0.3113,0.3204,0.3306,0.3409,0.3524,0.3539,0.3583,0.369,0.3533,0.3539,0.3315,0.3282,0.3567,0.355,0.3696,0.3695,0.3693,0.3692,0,0.2537,0.256,0.2595,0.2655,0.2681,0.2724,0.2842,0.2904,0.3033,0.3182,0.3236,0.3415,0.3531,0.3615,0.3747,0.369,0.3729,0.3723,0.3451,0.3417,0.3543,0.3526,0.366,0.3657,0.3654,0.3652,0.3649,0,0.2533,0.2547,0.2611,0.2637,0.2668,0.2739,0.2788,0.2908,0.2984,0.3221,0.3287,0.3479,0.3547,0.3683,0.3645,0.366,0.3727,0.3421,0.3253,0.3547,0.3541,0.3529,0.3516,0.3053,0.3046,0.304,0.3036,0,0.2542,0.2562,0.2601,0.2636,0.2679,0.2743,0.2822,0.2876,0.3021,0.3155,0.3293,0.3367,0.3491,0.3375,0.3407,0.3364,0.3375,0.3302,0.3734,0.306,0.2978,0.297,0.2978,0.2987,0.2992,0.2995,0.2998,0.3,0.2558,0.2586,0.262,0.2642,0.2684,0.2706,0.2717,0.2784,0.2883,0.2966,0.3132,0.3126,0.3154,0.302,0.2945,0.29,0.3114,0.2965,0.2981,0.3004,0.2859,0.2772,0.2719,0.2722,0.2724,0.2727,0.2729,0,0.2561,0.2595,0.2618,0.2635,0.2611,0.2663,0.2707,0.2648,0.2666,0.2739,0.2787,0.2557,0.2492,0.2525,0.239,0.2379,0.2352,0.2268,0.2226,0.2279,0.2325,0.2143,0.1814,0.1811,0.1808,0.1805,0,0,0.2584,0.2576,0.2564,0.2523,0.2536,0.2488,0.2474,0.2395,0.2382,0.2266,0.2227,0.2324,0.2439,0.2069,0.2047,0.1916,0.2068,0.1832,0.2579,0.2585,0.2626,0.2755,0.2537,0,0,0,0,0]},{"header":{"parameterUnit":"m.s-1","parameterCategory":2,"la1":30.2991,"la2":30.254,"lo1":-89.0895,"lo2":-89.0444,"dy":0.0017,"dx":0.0017,"nx":28,"ny":28,"refTime":"2023-08-27T21:00:00:Z","depth":"2","parameterNumber":3,"parameterNumberName":"V-component_of_CURRENTS"},"data":[0,0,0,0,0,0,0,0,0,0,0,0,0,0,0,0,0,0,0,0,0,0,0,0,0,0,0,0,0,0,0,0,0,0,0,0,0,0,0,0,0,0,0,0,0,0,0,0,0,0,0,0,0,0,0,0,0,0,0.012,0.012,0,0.0073,0.0072,0.0071,0.0032,0.0032,0.0031,0.0031,-0.0054,-0.0056,-0.0058,0,0,0,0,0,0,0,0,0,0,0,0,0,0.0135,0.0135,0.012,0.012,0.0119,0.0073,0.0072,0.0071,0.0032,0.0032,0.0031,0.0031,-0.0054,-0.0056,-0.0059,0,0,0,0,0,0,0,0,0,0,0,0,0,0.011,0.0135,0.012,0.0096,0.0093,0.0073,0.0072,0.0071,0.0032,0.0032,0.0031,0.0031,-0.0053,-0.0056,-0.0059,-0.0071,0,0,-0.0068,-0.007,0,0,0,0,0,0,0,0,0.0112,0.0109,0.01,0.0097,0.0094,0.006,0.0046,0.0022,0.0032,0.0053,0.0031,0.0031,-0.0018,-0.0024,-0.0035,-0.0075,-0.0079,-0.0069,-0.0071,-0.0072,-0.0073,0,0,0,0,0,0,0,0.0113,0.0111,0.0099,0.0099,0.0096,0.0073,0.0069,0.0041,0.0017,0.0051,0.0048,0.0047,-0.002,-0.0032,-0.0037,-0.008,-0.0069,-0.0071,-0.0073,-0.0074,-0.0131,-0.013,0,0,0,0,0,0,0.0126,0.0113,0.0101,0.0098,0.0105,0.0073,0.0069,0.0069,0.0018,0.0011,0.0047,0.0045,-0.0026,-0.0033,-0.004,-0.0036,-0.0072,-0.0075,-0.0077,-0.0131,-0.0131,-0.013,0,0,0,0,0,0,0.0127,0.0126,0.0103,0.0106,0.0101,0.0074,0.0074,0.0069,0.0062,0.0017,0.0008,0.0048,-0.0027,-0.0036,-0.006,-0.0041,-0.0076,-0.0079,-0.0131,-0.0131,-0.013,-0.0042,0,0,0,0,0,0,0.0127,0.0126,0.0132,0.0107,0.0102,0.0102,0.0075,0.0068,0.0063,0.006,0.0014,0.0005,-0.0028,-0.0055,-0.0063,-0.0046,-0.0081,-0.0132,-0.0131,-0.0131,-0.0046,-0.0039,-0.0033,0,0,0,0,0,0.0128,0.0144,0.0132,0.0131,0.011,0.0103,0.0098,0.0076,0.0063,0.0067,0.0033,0.0007,-0.0056,-0.0057,-0.0066,-0.005,-0.0132,-0.0131,-0.0131,-0.0049,-0.004,-0.0033,0,0,0,0,0,0,0.0156,0.014,0.0128,0.0138,0.0125,0.0097,0.0099,0.0084,0.006,0.0056,0.001,-0.0001,-0.0016,-0.0047,-0.0047,-0.0066,-0.0098,-0.0099,-0.0032,-0.0025,-0.0019,0.0004,-0.0084,0,0,0,0,0,0.0164,0.017,0.015,0.0159,0.0153,0.0127,0.0121,0.0108,0.0084,0.0073,0.0042,0.0007,-0.002,-0.0033,-0.0065,-0.0073,-0.0095,-0.007,-0.0063,-0.0058,-0.0047,-0.0061,-0.0054,-0.0128,-0.0128,-0.0128,0,0,0.0176,0.0171,0.0173,0.0165,0.015,0.0153,0.0122,0.0121,0.0126,0.0067,0.0063,0.0027,-0.0019,-0.003,-0.0039,-0.0052,-0.0049,-0.0057,-0.0051,-0.0043,-0.0059,-0.0052,-0.0045,-0.0127,-0.0127,-0.0127,0,0,0.021,0.0199,0.0214,0.0209,0.0198,0.0179,0.0184,0.0161,0.0153,0.0141,0.0102,0.0081,0.0037,0.0015,-0.0005,0.0017,-0.0018,0.0006,0.0061,0.0048,0.0054,0.006,0.0044,0.0047,0.0013,0.0013,0.0013,0,0.0223,0.0243,0.0219,0.0234,0.0235,0.0196,0.0214,0.02,0.0175,0.0177,0.015,0.0102,0.006,0.0057,0.0061,0.0034,0.002,0.0039,0.0059,0.0063,0.0067,0.0049,0.0052,0.0017,0.0017,0.0017,0.0016,0,0.0266,0.0283,0.0293,0.0295,0.0292,0.0303,0.028,0.028,0.026,0.0245,0.0237,0.0182,0.0162,0.0141,0.0104,0.0117,0.0096,0.0068,0.0046,0.0081,0.0059,0.006,0.0024,0.0022,0.0021,0.002,0,0,0.0296,0.0318,0.0323,0.0343,0.0329,0.0336,0.0343,0.0345,0.0372,0.0329,0.0362,0.0297,0.0277,0.0253,0.0211,0.0192,0.0199,0.015,0.0147,0.0146,0.0174,0.0083,0.0075,0.018,0.0181,0.0181,0.0149,0,0.0337,0.0387,0.0381,0.0426,0.0448,0.0423,0.0442,0.0438,0.0428,0.0449,0.0395,0.0401,0.0318,0.0325,0.0291,0.0226,0.0206,0.0211,0.013,0.0127,0.0052,0.0074,0.011,0.0077,0.015,0.015,0.015,0,0.0384,0.0414,0.0467,0.051,0.0518,0.054,0.0572,0.0584,0.0591,0.059,0.0577,0.0539,0.0509,0.0439,0.0343,0.0353,0.0275,0.0213,0.021,0.0096,0.0038,0.0051,0.0076,0.0151,0.0151,0.0151,0.0151,0,0.0429,0.0479,0.0526,0.0537,0.057,0.0603,0.0622,0.0636,0.0681,0.0695,0.0738,0.0669,0.0682,0.0555,0.0411,0.0389,0.0305,0.0257,0.0101,0.0094,0.0092,0.0082,0.0199,0.0199,0.0199,0.0199,0.0199,0,0.0481,0.0526,0.0562,0.0592,0.0674,0.0669,0.0759,0.0771,0.0824,0.0903,0.0828,0.0874,0.0718,0.0643,0.047,0.0287,0.0348,0.0116,0.008,0.012,0.0114,0.0149,0.0144,0.0198,0.0198,0.0198,0.0198,0,0.0536,0.0549,0.062,0.0674,0.0702,0.0766,0.0867,0.0932,0.0967,0.1077,0.1096,0.1063,0.0945,0.0756,0.0575,0.0393,0.0204,0.0127,0.0177,0.0145,-0.0013,-0.0013,-0.0054,-0.0057,-0.006,-0.0063,-0.0065,0,0.0569,0.0607,0.0692,0.0744,0.078,0.0875,0.0945,0.1005,0.1091,0.1184,0.1251,0.1191,0.1131,0.081,0.0511,0.0201,0.0171,0.0017,-0.0044,-0.0008,-0.0038,-0.0034,-0.003,0.0001,-0.0,-0.0001,-0.0002,0,0.064,0.0668,0.0732,0.0823,0.0909,0.1027,0.1142,0.1224,0.1308,0.1404,0.1474,0.1426,0.1146,0.0836,0.0424,0.0208,0.0053,-0.0021,0.0041,0.0036,0.0034,0.0007,0.0012,-0.0012,-0.0011,-0.001,-0.001,-0.0009,0.0699,0.0768,0.0829,0.0922,0.1022,0.1154,0.1257,0.1352,0.1488,0.1572,0.1569,0.148,0.1176,0.0604,0.0288,-0.0029,-0.0025,-0.0165,-0.0157,-0.0148,-0.016,-0.0169,-0.0255,-0.0255,-0.0256,-0.0256,-0.0256,0,0.0762,0.0841,0.092,0.1041,0.1121,0.1187,0.1372,0.1431,0.1557,0.1595,0.1606,0.1278,0.0944,0.0603,0.0143,-0.0165,-0.015,-0.0282,-0.0173,-0.0162,-0.0153,-0.0161,-0.0258,-0.0259,-0.026,-0.026,0,0,0.0809,0.088,0.0916,0.1067,0.1171,0.1326,0.1431,0.1492,0.1544,0.1526,0.148,0.1343,0.0996,0.0634,0.0263,0.0021,-0.0012,-0.0047,-0.0015,0.0168,0.0181,-0.0058,-0.0056,0,0,0,0,0]}],[{"header":{"parameterUnit":"m.s-1","parameterCategory":2,"la1":30.2991,"la2":30.254,"lo1":-89.0895,"lo2":-89.0444,"dy":0.0017,"dx":0.0017,"nx":28,"ny":28,"refTime":"2023-08-27T21:00:00:Z","depth":"4","parameterNumber":2,"parameterNumberName":"U-component_of_CURRENTS"},"data":[0,0,0,0,0,0,0,0,0,0,0,0,0,0,0,0,0,0,0,0,0,0,0,0,0,0,0,0,0,0,0,0,0,0,0,0,0,0,0,0,0,0,0,0,0,0,0,0,0,0,0,0,0,0,0,0,0,0,0.1408,0.1408,0,0.1461,0.1461,0.1462,0.1529,0.1531,0.1532,0.1533,0.1627,0.1629,0.163,0,0,0,0,0,0,0,0,0,0,0,0,0,0.1367,0.1367,0.1408,0.1408,0.1409,0.1461,0.1462,0.1462,0.1529,0.1531,0.1532,0.1533,0.1627,0.1629,0.163,0,0,0,0,0,0,0,0,0,0,0,0,0,0.1398,0.1368,0.1407,0.1449,0.1453,0.1461,0.1462,0.1462,0.1529,0.1531,0.1532,0.1534,0.1626,0.1628,0.1631,0.161,0,0,0.1637,0.1638,0,0,0,0,0,0,0,0,0.1396,0.14,0.1442,0.1446,0.1451,0.1491,0.1482,0.1514,0.1528,0.15,0.1533,0.1535,0.1585,0.159,0.1595,0.1615,0.1619,0.1637,0.1639,0.164,0.164,0,0,0,0,0,0,0,0.1394,0.1398,0.1428,0.1443,0.1448,0.1466,0.1473,0.1488,0.1532,0.1502,0.1507,0.1514,0.1587,0.1593,0.1598,0.162,0.1637,0.1639,0.1641,0.1642,0.1768,0.177,0,0,0,0,0,0,0.1387,0.1396,0.1426,0.143,0.1428,0.1466,0.1473,0.1476,0.1531,0.1541,0.1512,0.1517,0.1588,0.1595,0.1602,0.1689,0.164,0.1642,0.1643,0.1766,0.1768,0.177,0,0,0,0,0,0,0.1385,0.1389,0.1424,0.1415,0.1421,0.1465,0.1468,0.1476,0.1521,0.1539,0.155,0.1553,0.159,0.1599,0.1658,0.169,0.1643,0.1645,0.1763,0.1767,0.1769,0.1795,0,0,0,0,0,0,0.1384,0.1388,0.1409,0.1414,0.1421,0.1464,0.1466,0.1476,0.152,0.1528,0.1576,0.1585,0.1592,0.1654,0.166,0.1692,0.1646,0.1761,0.1765,0.1768,0.1792,0.1799,0.1805,0,0,0,0,0,0.1382,0.1389,0.1409,0.1414,0.1441,0.1466,0.1473,0.1508,0.1521,0.1552,0.1586,0.1585,0.1683,0.1657,0.1663,0.1697,0.1759,0.1764,0.1768,0.1789,0.1798,0.1805,0,0,0,0,0,0,0.1382,0.1397,0.1419,0.1432,0.1468,0.1479,0.1501,0.1526,0.1573,0.1594,0.1604,0.1615,0.1679,0.1688,0.166,0.1748,0.1723,0.1729,0.1738,0.1746,0.1752,0.1782,0.1648,0,0,0,0,0,0.1391,0.1405,0.1428,0.1447,0.1459,0.1488,0.1509,0.1544,0.1574,0.1599,0.1625,0.1662,0.1694,0.1722,0.1751,0.1793,0.181,0.1824,0.183,0.1835,0.1867,0.1919,0.1933,0.1785,0.1785,0.1785,0,0,0.1398,0.1407,0.1419,0.1451,0.1471,0.15,0.1506,0.1553,0.1592,0.16,0.166,0.1686,0.1712,0.1764,0.1794,0.1781,0.1882,0.1841,0.1845,0.1874,0.1926,0.194,0.1953,0.1789,0.1788,0.1788,0,0,0.1404,0.1425,0.144,0.147,0.1519,0.1536,0.1559,0.1598,0.1633,0.1694,0.1706,0.1763,0.1806,0.1834,0.185,0.1913,0.1913,0.1921,0.1978,0.2028,0.2041,0.2052,0.2064,0.2076,0.1925,0.1925,0.1925,0,0.1421,0.1435,0.1453,0.1478,0.1506,0.1553,0.1588,0.1622,0.1686,0.1718,0.173,0.1819,0.1842,0.19,0.1933,0.1929,0.1946,0.1938,0.2036,0.2047,0.2059,0.2069,0.2082,0.1927,0.1926,0.1926,0.1926,0,0.1431,0.1463,0.147,0.1515,0.1554,0.1592,0.164,0.1694,0.1739,0.1778,0.1863,0.19,0.196,0.197,0.1977,0.2064,0.2045,0.2032,0.201,0.2075,0.2081,0.2094,0.1929,0.1929,0.1928,0.1928,0,0,0.1416,0.1467,0.1479,0.1511,0.1581,0.1611,0.1677,0.1744,0.1796,0.1871,0.1935,0.2008,0.2045,0.207,0.2081,0.2135,0.2218,0.2131,0.2133,0.2133,0.2312,0.215,0.2149,0.2222,0.2225,0.2227,0.2273,0,0.1426,0.1468,0.15,0.1566,0.1589,0.1657,0.171,0.1791,0.1856,0.193,0.1994,0.2066,0.2072,0.2118,0.2174,0.2222,0.2261,0.2206,0.226,0.2261,0.2102,0.2162,0.2238,0.2283,0.2286,0.2288,0.229,0,0.1421,0.1455,0.151,0.1587,0.1606,0.1664,0.1767,0.183,0.1937,0.1996,0.2086,0.213,0.2239,0.2225,0.2345,0.2313,0.2329,0.2349,0.235,0.2209,0.2126,0.2215,0.2313,0.2312,0.231,0.2308,0.2307,0,0.1383,0.1458,0.1502,0.1532,0.1629,0.1685,0.175,0.186,0.1917,0.2055,0.2116,0.2227,0.2305,0.2366,0.2418,0.2401,0.2523,0.2488,0.2344,0.2331,0.2449,0.2437,0.2561,0.2561,0.256,0.256,0.256,0,0.1352,0.1396,0.1497,0.1525,0.1599,0.1684,0.1786,0.1859,0.1976,0.2035,0.2158,0.2218,0.2355,0.2423,0.245,0.244,0.2547,0.2375,0.2346,0.2454,0.2442,0.2456,0.2443,0.2562,0.2562,0.2561,0.2561,0,0.1289,0.1355,0.1416,0.1535,0.1581,0.1642,0.1791,0.1846,0.198,0.2061,0.211,0.2255,0.2351,0.2428,0.253,0.2464,0.2477,0.2432,0.2539,0.2511,0.2239,0.2228,0.2285,0.228,0.2276,0.2272,0.2269,0,0.1258,0.1283,0.141,0.1456,0.1517,0.1631,0.1694,0.1836,0.1884,0.2051,0.206,0.2205,0.2279,0.2297,0.2403,0.2425,0.2392,0.2369,0.2317,0.2253,0.2219,0.2214,0.2208,0.2263,0.2261,0.226,0.2259,0,0.1195,0.125,0.1291,0.1381,0.1459,0.1534,0.1631,0.166,0.18,0.1933,0.1969,0.2019,0.2113,0.2199,0.223,0.224,0.2379,0.2324,0.2332,0.2283,0.2226,0.2195,0.2195,0.2244,0.2247,0.2248,0.2249,0,0.1148,0.115,0.1207,0.1275,0.1361,0.1386,0.1475,0.1531,0.16,0.1763,0.1778,0.1931,0.2077,0.2102,0.2135,0.2137,0.2105,0.2027,0.205,0.2067,0.1978,0.1872,0.1774,0,0,0,0,0,0.1085,0.1057,0.11,0.114,0.1217,0.1269,0.1391,0.148,0.1621,0.1585,0.1671,0.1739,0.1806,0.1913,0.1873,0.2047,0.2115,0.1992,0.2037,0.2163,0.218,0.2096,0,0,0,0,0,0,0.1026,0.1043,0.1038,0.1007,0.1023,0.1078,0.116,0.1264,0.1273,0.1432,0.1497,0.1608,0.1726,0.1793,0.1826,0.1853,0.184,0.2093,0.2088,0.2153,0.2169,0.2182,0.2102,0,0,0,0,0]},{"header":{"parameterUnit":"m.s-1","parameterCategory":2,"la1":30.2991,"la2":30.254,"lo1":-89.0895,"lo2":-89.0444,"dy":0.0017,"dx":0.0017,"nx":28,"ny":28,"refTime":"2023-08-27T21:00:00:Z","depth":"4","parameterNumber":3,"parameterNumberName":"V-component_of_CURRENTS"},"data":[0,0,0,0,0,0,0,0,0,0,0,0,0,0,0,0,0,0,0,0,0,0,0,0,0,0,0,0,0,0,0,0,0,0,0,0,0,0,0,0,0,0,0,0,0,0,0,0,0,0,0,0,0,0,0,0,0,0,-0.0066,-0.0066,0,-0.0093,-0.0094,-0.0094,-0.0125,-0.0125,-0.0125,-0.0125,-0.0185,-0.0186,-0.0188,0,0,0,0,0,0,0,0,0,0,0,0,0,-0.0061,-0.0061,-0.0066,-0.0066,-0.0066,-0.0093,-0.0094,-0.0094,-0.0125,-0.0125,-0.0125,-0.0125,-0.0185,-0.0186,-0.0188,0,0,0,0,0,0,0,0,0,0,0,0,0,-0.0076,-0.0061,-0.0066,-0.0082,-0.0084,-0.0093,-0.0094,-0.0094,-0.0125,-0.0125,-0.0125,-0.0125,-0.0184,-0.0186,-0.0188,-0.0196,0,0,-0.0195,-0.0196,0,0,0,0,0,0,0,0,-0.0075,-0.0076,-0.008,-0.0081,-0.0083,-0.0103,-0.0113,-0.0129,-0.0125,-0.0112,-0.0125,-0.0126,-0.0158,-0.0163,-0.0171,-0.0199,-0.0201,-0.0195,-0.0196,-0.0197,-0.0198,0,0,0,0,0,0,0,-0.0074,-0.0075,-0.008,-0.008,-0.0082,-0.0095,-0.0097,-0.0117,-0.0137,-0.0113,-0.0115,-0.0113,-0.016,-0.0169,-0.0173,-0.0202,-0.0195,-0.0197,-0.0198,-0.0199,-0.0248,-0.0248,0,0,0,0,0,0,-0.0063,-0.0074,-0.0079,-0.008,-0.0076,-0.0094,-0.0097,-0.0099,-0.0136,-0.014,-0.0113,-0.0114,-0.0165,-0.017,-0.0175,-0.0182,-0.0197,-0.0199,-0.02,-0.0248,-0.0248,-0.0248,0,0,0,0,0,0,-0.0063,-0.0063,-0.0078,-0.0075,-0.0078,-0.0094,-0.0095,-0.0099,-0.0106,-0.0134,-0.014,-0.0115,-0.0166,-0.0172,-0.0192,-0.0184,-0.02,-0.0202,-0.0248,-0.0248,-0.0248,-0.0198,0,0,0,0,0,0,-0.0063,-0.0063,-0.006,-0.0075,-0.0077,-0.0079,-0.0095,-0.0099,-0.0103,-0.0106,-0.0139,-0.0144,-0.0166,-0.0189,-0.0195,-0.0188,-0.0204,-0.0248,-0.0248,-0.0248,-0.02,-0.0196,-0.0194,0,0,0,0,0,-0.0062,-0.0058,-0.006,-0.006,-0.0073,-0.0078,-0.0081,-0.0096,-0.0103,-0.0104,-0.0128,-0.0143,-0.0193,-0.0191,-0.0197,-0.0191,-0.0248,-0.0248,-0.0248,-0.0201,-0.0197,-0.0194,0,0,0,0,0,0,-0.0055,-0.0061,-0.0063,-0.0061,-0.0066,-0.0082,-0.0083,-0.0092,-0.0111,-0.0113,-0.0144,-0.0152,-0.0169,-0.0188,-0.0184,-0.0206,-0.0223,-0.0224,-0.0185,-0.0181,-0.0178,-0.0161,-0.0205,0,0,0,0,0,-0.005,-0.0047,-0.0055,-0.0051,-0.0053,-0.0066,-0.007,-0.0077,-0.0094,-0.0102,-0.0125,-0.0151,-0.0174,-0.0183,-0.0208,-0.0217,-0.0242,-0.0218,-0.0215,-0.0212,-0.0203,-0.0234,-0.0233,-0.0248,-0.0248,-0.0248,0,0,-0.0044,-0.0046,-0.0044,-0.0049,-0.0055,-0.0051,-0.007,-0.0069,-0.0066,-0.0106,-0.0114,-0.0143,-0.0176,-0.0189,-0.0198,-0.0203,-0.0223,-0.0212,-0.0209,-0.0202,-0.0234,-0.0233,-0.0231,-0.0248,-0.0248,-0.0248,0,0,-0.0028,-0.0034,-0.0025,-0.0026,-0.0026,-0.0036,-0.0033,-0.0046,-0.0054,-0.0063,-0.0093,-0.0113,-0.0147,-0.0166,-0.0182,-0.0176,-0.0209,-0.0187,-0.0151,-0.0182,-0.018,-0.0179,-0.0215,-0.0218,-0.018,-0.018,-0.018,0,-0.0021,-0.0011,-0.0023,-0.0013,-0.0008,-0.0027,-0.0014,-0.0024,-0.0042,-0.0045,-0.0059,-0.0109,-0.0134,-0.0152,-0.0148,-0.0167,-0.0194,-0.016,-0.0176,-0.0176,-0.0176,-0.0213,-0.0216,-0.0178,-0.0178,-0.0178,-0.0178,0,0.0002,0.0013,0.0018,0.0025,0.0026,0.0035,0.0024,0.0022,0.001,-0.0004,-0.0025,-0.0063,-0.009,-0.0102,-0.0121,-0.0133,-0.0156,-0.0172,-0.0182,-0.0171,-0.0211,-0.0216,-0.0174,-0.0175,-0.0176,-0.0176,0,0,0.0013,0.0031,0.0034,0.0049,0.0049,0.0053,0.006,0.0057,0.0062,0.0035,0.0031,-0.0005,-0.0028,-0.0047,-0.0078,-0.0098,-0.0121,-0.0127,-0.0129,-0.0154,-0.0194,-0.0186,-0.0191,-0.0141,-0.0141,-0.0141,-0.0224,0,0.0035,0.0065,0.0066,0.0096,0.0109,0.0103,0.0112,0.0108,0.0092,0.008,0.0041,0.0022,-0.0007,-0.0018,-0.0044,-0.0098,-0.013,-0.0097,-0.0207,-0.021,-0.0198,-0.0194,-0.0143,-0.0228,-0.0229,-0.023,-0.023,0,0.0055,0.0076,0.0109,0.0138,0.0144,0.016,0.0171,0.0177,0.0156,0.0147,0.0118,0.0076,0.0045,0.0014,-0.007,-0.0049,-0.0115,-0.0163,-0.0168,-0.0177,-0.021,-0.0241,-0.0239,-0.0239,-0.0238,-0.0237,-0.0237,0,0.0067,0.0103,0.0132,0.0143,0.017,0.019,0.0203,0.0199,0.0208,0.0187,0.0185,0.0128,0.0102,0.0023,-0.0068,-0.0072,-0.0171,-0.0192,-0.0256,-0.0257,-0.0263,-0.0263,-0.0266,-0.0266,-0.0265,-0.0265,-0.0265,0,0.0084,0.0109,0.0146,0.0165,0.0208,0.0219,0.026,0.0258,0.0262,0.0275,0.0221,0.0212,0.0104,0.003,-0.0059,-0.0161,-0.0167,-0.0247,-0.0273,-0.0242,-0.0238,-0.0267,-0.0266,-0.0268,-0.0268,-0.0267,-0.0266,0,0.0084,0.0109,0.0148,0.0195,0.0215,0.0245,0.0303,0.0328,0.033,0.0341,0.0337,0.0272,0.019,0.0069,-0.0064,-0.0142,-0.0245,-0.029,-0.0246,-0.027,-0.0319,-0.0315,-0.0365,-0.0365,-0.0366,-0.0366,-0.0366,0,0.0086,0.0106,0.0168,0.0206,0.0232,0.029,0.0333,0.0358,0.0388,0.0382,0.0386,0.0307,0.0251,0.0082,-0.0051,-0.0227,-0.0259,-0.0324,-0.032,-0.0306,-0.0327,-0.0323,-0.0318,-0.0366,-0.0366,-0.0366,-0.0366,0,0.0087,0.0108,0.0142,0.0222,0.0279,0.0339,0.0403,0.0435,0.0462,0.0456,0.044,0.0343,0.024,0.0099,-0.0044,-0.0172,-0.0279,-0.0327,-0.0328,-0.0325,-0.0308,-0.0328,-0.0323,-0.0367,-0.0367,-0.0367,-0.0367,0,0.0088,0.0107,0.0161,0.0239,0.0303,0.0372,0.0413,0.0465,0.0493,0.0493,0.0487,0.0376,0.0308,0.0125,0.0001,-0.0124,-0.0165,-0.0213,-0.0221,-0.0222,-0.0154,-0.011,-0.0125,0,0,0,0,0,0.0091,0.0122,0.0182,0.026,0.0324,0.0364,0.0448,0.0488,0.0522,0.052,0.051,0.0421,0.0239,0.0162,0.004,-0.0026,-0.0202,-0.0176,-0.0265,-0.0372,-0.0371,-0.0314,0,0,0,0,0,0,0.0089,0.0136,0.0175,0.0268,0.032,0.0387,0.0442,0.0471,0.0487,0.0502,0.042,0.037,0.0203,0.0302,0.0027,-0.0013,-0.0089,-0.0262,-0.0265,-0.0372,-0.0372,-0.0371,-0.0312,0,0,0,0,0]}]]